{"data":{"norad_id":57214,"intl_designator":"2023-093B","name":"SYRACUSE 4B","alt_names":[],"object_type":"PAYLOAD","status":"ACTIVE","operator":null,"country":"FR","launch_date":"2023-07-05","launch_site_code":"FRGUI","launch_vehicle":null,"mission":null,"orbit_class":"UNKNOWN","rcs_meters":null,"size_class":null,"mass_kg":null,"dimensions":null,"purposes":["comms"],"wikipedia_slug":null,"has_3d_model":false,"image_url":null,"decayed_at":null,"tle_current":{"epoch":"2026-05-24T20:01:38.676288Z","epoch_age_seconds":85501,"freshness":"FRESH","line1":"1 57214U 23093B   26144.83447542  .00000000  00000+0  00000+0 0  9998","line2":"2 57214   0.0130 323.1168 0000198 135.1061  78.1441  1.00270398  6735","mean_motion":1.00270398,"eccentricity":1.98e-5,"inclination_deg":0.013,"raan_deg":323.1168,"arg_perigee_deg":135.1061,"mean_anomaly_deg":78.1441,"bstar":0,"rev_number":673,"period_min":1436.116768979,"perigee_km":35786.148922731,"apogee_km":35787.818661514,"semimajor_km":42165.120792122,"source":"CELESTRAK","updated_at":"2026-05-25T13:38:14.142024Z"}}}